This is the latest recevied weather packets stored in our database for station/object N4PWG. If no packets are shown the sender has not sent any weather packets the latest 10 day(s).
| Time | Temp. | Humidity | Pressure | Rain* | Wind** | Luminosity | Snow |
|---|---|---|---|---|---|---|---|
| 1777425027 | 18.89° C | 99% | 1029.1 hPa | 0 mm | - | 0 W/m² | - |
| 1777424723 | 18.89° C | 99% | 1028.8 hPa | 0 mm | - | 0 W/m² | - |
| 1777424418 | 18.89° C | 99% | 1028.5 hPa | 0 mm | - | 0 W/m² | - |
| 1777424114 | 18.89° C | 99% | 1028.6 hPa | 0 mm | - | 0 W/m² | - |
| 1777423812 | 18.89° C | 99% | 1029.1 hPa | 0 mm | - | 0 W/m² | - |
| 1777423508 | 18.89° C | 99% | 1029.7 hPa | 0 mm | - | 0 W/m² | - |
| 1777423203 | 18.89° C | 99% | 1029.6 hPa | 0 mm | - | 0 W/m² | - |
| 1777422896 | 19.44° C | 99% | 1029.4 hPa | 0 mm | - | 1 W/m² | - |
| 1777422593 | 19.44° C | 99% | 1029.8 hPa | 0 mm | - | 1 W/m² | - |
| 1777422289 | 19.44° C | 99% | 1029.9 hPa | 0 mm | - | 6 W/m² | - |
| 1777421989 | 19.44° C | 99% | 1030.2 hPa | 0 mm | - | 11 W/m² | - |
| 1777421683 | 19.44° C | 99% | 1030.7 hPa | 0 mm | - | 10 W/m² | - |
| 1777421378 | 19.44° C | 99% | 1030.8 hPa | 0 mm | - | 7 W/m² | - |
| 1777421076 | 20° C | 99% | 1030.9 hPa | 0 mm | - | 9 W/m² | - |
| 1777420772 | 20° C | 99% | 1030.7 hPa | 0 mm | - | 11 W/m² | - |
| 1777420468 | 20° C | 99% | 1030.7 hPa | 0 mm | - | 10 W/m² | - |
| 1777420165 | 20° C | 99% | 1030.7 hPa | 10.16 mm | - | 7 W/m² | - |
| 1777419861 | 20° C | 98% | 1030.6 hPa | 14.99 mm | - | 3 W/m² | - |
| 1777419559 | 20° C | 95% | 1030.5 hPa | 4.83 mm | - | 2 W/m² | - |
| 1777419257 | 20° C | 95% | 1030.2 hPa | 0 mm | - | 0 W/m² | - |
| 1777418955 | 20° C | 93% | 1029 hPa | 6.1 mm | - | 0 W/m² | - |
| 1777418649 | 20.56° C | 92% | 1028.9 hPa | 7.87 mm | - | 1 W/m² | - |
| 1777418346 | 21.11° C | 93% | 1028.4 hPa | 1.78 mm | - | 1 W/m² | - |
| 1777418042 | 21.67° C | 96% | 1026.4 hPa | 0 mm | - | 2 W/m² | - |
| 1777417737 | 21.67° C | 95% | 1026.9 hPa | 0 mm | - | 3 W/m² | - |
* Rain latest hour (hover to see other rain measurements)
** Current wind speed in m/s (hover to see current wind gust speed)